DW3793 Weather Reports


Display with metric or nautical units.
time (UTC)temp
F
wind
direction
speed
MPH
gust
MPH
rain 1hr
in
rain 24hr
in
rain mn
in
humidity
%
barometer
mb
20260506113042 47 271 0.0 0.0 0.00 0.00 0.00 70 1016.2
20260506111538 50 271 0.0 1.0 0.00 0.00 0.00 66 1016.0
20260506110041 50 297 0.0 3.0 0.00 0.00 0.00 66 1015.8
20260506104533 50 255 1.0 3.0 0.00 0.00 0.00 66 1015.8
20260506103029 51 306 1.0 3.0 0.00 0.00 0.00 64 1015.6
20260506101533 51 302 2.0 5.0 0.00 0.00 0.00 64 1015.4
20260506100027 51 295 2.0 7.0 0.00 0.00 0.00 64 1015.4
20260506094528 51 248 0.0 7.0 0.00 0.00 0.00 64 1015.3
20260506093031 49 305 1.0 4.0 0.00 0.00 0.00 68 1015.3
20260506091522 50 285 2.0 5.0 0.00 0.00 0.00 67 1015.4
20260506090020 50 257 2.0 5.0 0.00 0.00 0.00 67 1015.5
20260506084519 50 301 2.0 5.0 0.00 0.00 0.00 67 1015.4
20260506083021 50 292 1.0 6.0 0.00 0.00 0.00 68 1015.2
20260506081515 50 298 1.0 5.0 0.00 0.00 0.00 65 1015.1
20260506073005 51 285 1.0 3.0 0.00 0.00 0.00 66 1014.7
20260506071501 51 302 3.0 5.0 0.00 0.00 0.00 66 1014.7
20260506061551 51 302 1.0 3.0 0.00 0.00 0.00 70 1014.2
20260506044549 53 305 0.0 2.0 0.00 0.00 0.00 70 1013.6
20260506043039 54 331 1.0 3.0 0.00 0.00 0.00 70 1013.6
20260506041541 55 312 1.0 3.0 0.00 0.00 0.00 70 1013.5
20260506040036 58 302 1.0 4.0 0.00 0.00 0.00 65 1013.3
20260506034540 61 181 0.0 1.0 0.00 0.00 0.00 56 1013.2
20260506033006 62 136 0.0 3.0 0.00 0.00 0.00 55 1013.0
20260506031503 62 122 2.0 4.0 0.00 0.00 0.00 57 1012.8
20260506030058 63 138 2.0 8.0 0.00 0.00 0.00 56 1012.6
20260506024559 65 144 5.0 11.0 0.00 0.00 0.00 52 1012.4
20260506023104 67 113 4.0 14.0 0.00 0.00 0.00 49 1012.2
20260506021557 68 115 8.0 16.0 0.00 0.00 0.00 46 1012.0
20260506020058 69 107 9.0 17.0 0.00 0.00 0.00 43 1011.9
20260506014554 70 132 11.0 21.0 0.00 0.00 0.00 42 1011.7
20260506013107 71 123 8.0 17.0 0.00 0.00 0.00 40 1011.5
20260506011558 71 121 6.0 19.0 0.00 0.00 0.00 40 1011.5
20260506010114 72 153 10.0 25.0 0.00 0.00 0.00 37 1011.4
20260506004551 72 116 11.0 23.0 0.00 0.00 0.00 36 1011.3
20260506003050 72 109 11.0 19.0 0.00 0.00 0.00 35 1011.3
20260506001555 73 111 8.0 21.0 0.00 0.00 0.00 37 1011.3
20260506000053 74 134 9.0 18.0 0.00 0.00 0.00 38 1011.4
20260505234518 74 117 9.0 19.0 0.00 0.00 0.00 37 1011.5
20260505233018 72 147 6.0 15.0 0.00 0.00 0.00 43 1011.6
20260505231516 71 135 6.0 14.0 0.00 0.00 0.00 44 1011.7
20260505230023 70 148 15.0 22.0 0.00 0.00 0.00 45 1011.9
20260505224515 73 146 11.0 21.0 0.00 0.00 0.00 38 1011.5
20260505223014 73 130 9.0 20.0 0.00 0.00 0.00 41 1011.5
20260505221544 73 149 13.0 20.0 0.00 0.00 0.00 42 1011.6
20260505220042 73 126 10.0 18.0 0.00 0.00 0.00 41 1011.5
20260505214540 74 142 12.0 23.0 0.00 0.00 0.00 41 1011.4
20260505213038 74 99 10.0 18.0 0.00 0.00 0.00 40 1011.5
20260505211537 73 111 11.0 18.0 0.00 0.00 0.00 41 1011.6
20260505210037 73 161 11.0 20.0 0.00 0.00 0.00 43 1011.6
20260505204534 73 140 9.0 19.0 0.00 0.00 0.00 45 1011.6
20260505203037 73 122 10.0 18.0 0.00 0.00 0.00 36 1011.7
20260505201545 73 126 5.0 18.0 0.00 0.00 0.00 38 1011.7
20260505200033 73 142 6.0 15.0 0.00 0.00 0.00 39 1011.9
20260505193021 71 173 0.0 10.0 0.00 0.00 0.00 46 1012.1
20260505191519 69 173 5.0 8.0 0.00 0.00 0.00 52 1012.3
20260505190026 68 158 2.0 5.0 0.00 0.00 0.00 52 1012.4
20260505184546 67 142 0.0 4.0 0.00 0.00 0.00 50 1012.6
20260505183107 66 138 1.0 3.0 0.00 0.00 0.00 52 1012.5
20260505181537 66 57 0.0 3.0 0.00 0.00 0.00 52 1012.6
20260505180037 66 150 0.0 7.0 0.00 0.00 0.00 51 1012.7
20260505174537 66 89 2.0 5.0 0.00 0.00 0.00 50 1012.6
20260505173042 65 311 0.0 3.0 0.00 0.00 0.00 53 1012.7
20260505171541 64 285 1.0 4.0 0.00 0.00 0.00 51 1012.7
20260505170025 63 75 1.0 6.0 0.00 0.00 0.00 55 1012.6
20260505164524 63 76 1.0 4.0 0.00 0.00 0.00 57 1012.7
20260505163023 62 98 0.0 5.0 0.00 0.00 0.00 60 1012.7
20260505161520 62 62 1.0 4.0 0.00 0.00 0.00 58 1012.7
20260505153018 60 86 1.0 4.0 0.00 0.00 0.00 57 1012.5
20260505151513 61 301 0.0 2.0 0.00 0.00 0.00 56 1012.5
20260505124512 44 250 0.0 3.0 0.00 0.00 0.00 82 1011.3
20260505123010 44 290 1.0 2.0 0.00 0.00 0.00 83 1011.2
20260505121510 44 298 1.0 3.0 0.00 0.00 0.00 82 1011.1
20260505120026 44 264 0.0 2.0 0.00 0.00 0.00 83 1011.0
20260505114505 44 284 0.0 2.0 0.00 0.00 0.00 81 1010.9